Tracking 19720 objects as of 25-Jun-2019
HD Live streaming from Space Station
objects crossing your sky now

IRIDIUM 95


IRIDIUM 95 is no longer on orbit
IRIDIUM 95 is classified as:


NORAD ID: 27375
Int'l Code: 2002-005D
Perigee: N/A
Apogee: N/A
Inclination: N/A
Period: N/A
Semi major axis: N/A
RCS: N/A
Launch date: February 11, 2002
Source: United States (US)
Launch site: AIR FORCE WESTERN TEST RANGE (AFWTR)
Decay date: 2019-03-25

Spare; stored in 667 km storage orbit, not raised to 780 km operational orbit until needed
aabbcc
Your satellite tracking list
Your tracking list is empty




NASA's NSSDC Master Catalog

Two Line Element Set (TLE):
1 27375U 02005D   19084.73540002  .20309122 -18465-5  18100-3 0  9996
2 27375  86.6002  15.7630 0050669 113.4157 247.2494 16.46327734903780
Source of the keplerian elements: AFSPC